contact:dominique.lefevre@mio.osupytheas.fr, maurice.libes@osupytheas.fr, didier.mallarino@osupytheas.fr
Project:EMSO http://www.emso-fr.org/EMSO-France
Depth: 2436.0 m
Title:EMSO Ligure Ouest : Data MII capteur MICROCAT
DateTime_Computer,Latitude,Longitude,Temperature,Conductivity,Pressure,DateTime_Instrument
DateTime_Computer,Latitude,Longitude,degC,S m-1,dbar,DateTime_Instrument
2023-01-10T00:01:18Z,42.805,6.029,13.3011,4.60077,2470.553,2023-1-10T02:07:31Z
2023-01-10T00:04:21Z,42.805,6.029,13.3014,4.60073,2470.553,2023-1-10T02:10:34Z
2023-01-10T00:07:24Z,42.805,6.029,13.3013,4.60070,2470.567,2023-1-10T02:13:37Z
2023-01-10T00:10:27Z,42.805,6.029,13.3015,4.60069,2470.591,2023-1-10T02:16:40Z
2023-01-10T00:13:30Z,42.805,6.029,13.3014,4.60074,2470.567,2023-1-10T02:19:43Z
2023-01-10T00:16:33Z,42.805,6.029,13.3013,4.60074,2470.567,2023-1-10T02:22:46Z
2023-01-10T00:19:36Z,42.805,6.029,13.3013,4.60072,2470.53,2023-1-10T02:25:49Z
2023-01-10T00:22:39Z,42.805,6.029,13.3014,4.60074,2470.544,2023-1-10T02:28:52Z
2023-01-10T00:25:43Z,42.805,6.029,13.3011,4.60068,2470.544,2023-1-10T02:31:55Z
2023-01-10T00:28:46Z,42.805,6.029,13.3013,4.60069,2470.53,2023-1-10T02:34:58Z
2023-01-10T00:31:49Z,42.805,6.029,13.3011,4.60067,2470.52,2023-1-10T02:38:02Z
2023-01-10T00:34:52Z,42.805,6.029,13.3012,4.60067,2470.497,2023-1-10T02:41:05Z
2023-01-10T00:37:55Z,42.805,6.029,13.3010,4.60068,2470.507,2023-1-10T02:44:08Z
2023-01-10T00:40:58Z,42.805,6.029,13.3014,4.60067,2470.544,2023-1-10T02:47:11Z
2023-01-10T00:44:01Z,42.805,6.029,13.3013,4.60069,2470.53,2023-1-10T02:50:14Z
2023-01-10T00:47:04Z,42.805,6.029,13.3013,4.60072,2470.53,2023-1-10T02:53:17Z
2023-01-10T00:50:07Z,42.805,6.029,13.3011,4.60067,2470.53,2023-1-10T02:56:20Z
2023-01-10T00:53:10Z,42.805,6.029,13.3011,4.60069,2470.507,2023-1-10T02:59:23Z
2023-01-10T00:56:13Z,42.805,6.029,13.3011,4.60068,2470.507,2023-1-10T03:02:26Z
2023-01-10T00:59:17Z,42.805,6.029,13.3013,4.60069,2470.544,2023-1-10T03:05:29Z
2023-01-10T01:02:20Z,42.805,6.029,13.3010,4.60067,2470.507,2023-1-10T03:08:32Z
2023-01-10T01:05:23Z,42.805,6.029,13.3011,4.60069,2470.544,2023-1-10T03:11:36Z
2023-01-10T01:08:26Z,42.805,6.029,13.3015,4.60068,2470.53,2023-1-10T03:14:39Z
2023-01-10T01:11:29Z,42.805,6.029,13.3015,4.60068,2470.544,2023-1-10T03:17:42Z
2023-01-10T01:14:32Z,42.805,6.029,13.3011,4.60068,2470.46,2023-1-10T03:20:45Z
2023-01-10T01:17:35Z,42.805,6.029,13.3011,4.60069,2470.53,2023-1-10T03:23:48Z
2023-01-10T01:20:38Z,42.805,6.029,13.3009,4.60069,2470.507,2023-1-10T03:26:51Z
2023-01-10T01:23:41Z,42.805,6.029,13.3014,4.60070,2470.483,2023-1-10T03:29:54Z
2023-01-10T01:26:44Z,42.805,6.029,13.3010,4.60067,2470.483,2023-1-10T03:32:57Z
2023-01-10T01:29:47Z,42.805,6.029,13.3012,4.60067,2470.497,2023-1-10T03:36:00Z
2023-01-10T01:32:50Z,42.805,6.029,13.3011,4.60068,2470.483,2023-1-10T03:39:03Z
2023-01-10T01:35:54Z,42.805,6.029,13.3011,4.60068,2470.53,2023-1-10T03:42:06Z
2023-01-10T01:38:57Z,42.805,6.029,13.3013,4.60067,2470.507,2023-1-10T03:45:09Z
2023-01-10T01:42:00Z,42.805,6.029,13.3011,4.60069,2470.483,2023-1-10T03:48:13Z
2023-01-10T01:45:03Z,42.805,6.029,13.3015,4.60067,2470.507,2023-1-10T03:51:16Z
2023-01-10T01:48:06Z,42.805,6.029,13.3011,4.60064,2470.507,2023-1-10T03:54:19Z
2023-01-10T01:51:09Z,42.805,6.029,13.3011,4.60067,2470.52,2023-1-10T03:57:22Z
2023-01-10T01:54:12Z,42.805,6.029,13.3011,4.60067,2470.474,2023-1-10T04:00:25Z
2023-01-10T01:57:15Z,42.805,6.029,13.3011,4.60066,2470.507,2023-1-10T04:03:28Z
2023-01-10T02:00:18Z,42.805,6.029,13.3011,4.60064,2470.483,2023-1-10T04:06:31Z
2023-01-10T02:03:21Z,42.805,6.029,13.3011,4.60064,2470.483,2023-1-10T04:09:34Z
2023-01-10T02:06:24Z,42.805,6.029,13.3009,4.60064,2470.493,2023-1-10T04:12:37Z
2023-01-10T02:09:28Z,42.805,6.029,13.3015,4.60066,2470.483,2023-1-10T04:15:40Z
2023-01-10T02:12:31Z,42.805,6.029,13.3012,4.60064,2470.507,2023-1-10T04:18:43Z
2023-01-10T02:15:34Z,42.805,6.029,13.3011,4.60066,2470.52,2023-1-10T04:21:47Z
2023-01-10T02:18:37Z,42.805,6.029,13.3013,4.60067,2470.497,2023-1-10T04:24:50Z
2023-01-10T02:21:40Z,42.805,6.029,13.3011,4.60067,2470.483,2023-1-10T04:27:53Z
2023-01-10T02:24:43Z,42.805,6.029,13.3015,4.60068,2470.474,2023-1-10T04:30:56Z
2023-01-10T02:27:46Z,42.805,6.029,13.3011,4.60070,2470.52,2023-1-10T04:33:59Z
2023-01-10T02:30:49Z,42.805,6.029,13.3014,4.60066,2470.46,2023-1-10T04:37:02Z
2023-01-10T02:33:52Z,42.805,6.029,13.3008,4.60064,2470.47,2023-1-10T04:40:05Z
2023-01-10T02:36:55Z,42.805,6.029,13.3011,4.60064,2470.474,2023-1-10T04:43:08Z
2023-01-10T02:39:58Z,42.805,6.029,13.3012,4.60065,2470.497,2023-1-10T04:46:11Z
2023-01-10T02:43:01Z,42.805,6.029,13.3011,4.60067,2470.46,2023-1-10T04:49:14Z
2023-01-10T02:46:05Z,42.805,6.029,13.3011,4.60065,2470.474,2023-1-10T04:52:17Z
2023-01-10T02:49:08Z,42.805,6.029,13.3013,4.60067,2470.483,2023-1-10T04:55:21Z
2023-01-10T02:52:11Z,42.805,6.029,13.3011,4.60070,2470.53,2023-1-10T04:58:24Z
2023-01-10T02:55:14Z,42.805,6.029,13.3011,4.60067,2470.46,2023-1-10T05:01:27Z
2023-01-10T02:58:17Z,42.805,6.029,13.3010,4.60065,2470.483,2023-1-10T05:04:30Z
2023-01-10T03:01:20Z,42.805,6.029,13.3011,4.60066,2470.474,2023-1-10T05:07:33Z
2023-01-10T03:04:23Z,42.805,6.029,13.3011,4.60067,2470.46,2023-1-10T05:10:36Z
2023-01-10T03:07:26Z,42.805,6.029,13.3010,4.60066,2470.497,2023-1-10T05:13:39Z
2023-01-10T03:10:29Z,42.805,6.029,13.3014,4.60067,2470.497,2023-1-10T05:16:42Z
2023-01-10T03:13:32Z,42.805,6.029,13.3011,4.60066,2470.497,2023-1-10T05:19:45Z
2023-01-10T03:16:35Z,42.805,6.029,13.3013,4.60066,2470.46,2023-1-10T05:22:48Z
2023-01-10T03:19:39Z,42.805,6.029,13.3010,4.60067,2470.52,2023-1-10T05:25:51Z
2023-01-10T03:22:42Z,42.805,6.029,13.3009,4.60066,2470.483,2023-1-10T05:28:55Z
2023-01-10T03:25:45Z,42.805,6.029,13.3011,4.60067,2470.483,2023-1-10T05:31:58Z
2023-01-10T03:28:48Z,42.805,6.029,13.3013,4.60067,2470.46,2023-1-10T05:35:01Z
2023-01-10T03:31:51Z,42.805,6.029,13.3011,4.60066,2470.483,2023-1-10T05:38:04Z
2023-01-10T03:34:54Z,42.805,6.029,13.3014,4.60066,2470.474,2023-1-10T05:41:07Z
2023-01-10T03:37:57Z,42.805,6.029,13.3012,4.60067,2470.52,2023-1-10T05:44:10Z
2023-01-10T03:41:00Z,42.805,6.029,13.3012,4.60067,2470.497,2023-1-10T05:47:13Z
2023-01-10T03:44:03Z,42.805,6.029,13.3011,4.60063,2470.483,2023-1-10T05:50:16Z
2023-01-10T03:47:06Z,42.805,6.029,13.3012,4.60065,2470.507,2023-1-10T05:53:19Z
2023-01-10T03:50:09Z,42.805,6.029,13.3009,4.60064,2470.52,2023-1-10T05:56:22Z
2023-01-10T03:53:12Z,42.805,6.029,13.3013,4.60066,2470.507,2023-1-10T05:59:25Z
2023-01-10T03:56:16Z,42.805,6.029,13.3013,4.60063,2470.497,2023-1-10T06:02:28Z
2023-01-10T03:59:19Z,42.805,6.029,13.3008,4.60063,2470.507,2023-1-10T06:05:32Z
2023-01-10T04:02:22Z,42.805,6.029,13.3014,4.60064,2470.507,2023-1-10T06:08:35Z
2023-01-10T04:05:25Z,42.805,6.029,13.3009,4.60064,2470.493,2023-1-10T06:11:38Z
2023-01-10T04:08:28Z,42.805,6.029,13.3013,4.60065,2470.483,2023-1-10T06:14:41Z
2023-01-10T04:11:31Z,42.805,6.029,13.3009,4.60066,2470.507,2023-1-10T06:17:44Z
2023-01-10T04:14:34Z,42.805,6.029,13.3011,4.60064,2470.497,2023-1-10T06:20:47Z
2023-01-10T04:17:37Z,42.805,6.029,13.3013,4.60067,2470.53,2023-1-10T06:23:50Z
2023-01-10T04:20:40Z,42.805,6.029,13.3014,4.60067,2470.507,2023-1-10T06:26:53Z
2023-01-10T04:23:43Z,42.805,6.029,13.3014,4.60069,2470.53,2023-1-10T06:29:56Z
2023-01-10T04:26:46Z,42.805,6.029,13.3009,4.60068,2470.52,2023-1-10T06:32:59Z
2023-01-10T04:29:49Z,42.805,6.029,13.3011,4.60063,2470.483,2023-1-10T06:36:02Z
2023-01-10T04:32:53Z,42.805,6.029,13.3011,4.60062,2470.53,2023-1-10T06:39:06Z
2023-01-10T04:35:56Z,42.805,6.029,13.3009,4.60064,2470.507,2023-1-10T06:42:09Z
2023-01-10T04:38:59Z,42.805,6.029,13.3012,4.60064,2470.507,2023-1-10T06:45:12Z
2023-01-10T04:42:02Z,42.805,6.029,13.3009,4.60066,2470.507,2023-1-10T06:48:15Z
2023-01-10T04:45:05Z,42.805,6.029,13.3010,4.60066,2470.507,2023-1-10T06:51:18Z
2023-01-10T04:48:08Z,42.805,6.029,13.3011,4.60064,2470.497,2023-1-10T06:54:21Z
2023-01-10T04:51:11Z,42.805,6.029,13.3018,4.60067,2470.52,2023-1-10T06:57:24Z
2023-01-10T04:54:14Z,42.805,6.029,13.3014,4.60064,2470.53,2023-1-10T07:00:27Z
2023-01-10T04:57:17Z,42.805,6.029,13.3012,4.60064,2470.53,2023-1-10T07:03:30Z
2023-01-10T05:00:20Z,42.805,6.029,13.3009,4.60067,2470.544,2023-1-10T07:06:33Z
2023-01-10T05:03:23Z,42.805,6.029,13.3011,4.60070,2470.53,2023-1-10T07:09:36Z
2023-01-10T05:06:27Z,42.805,6.029,13.3015,4.60069,2470.544,2023-1-10T07:12:40Z
2023-01-10T05:09:30Z,42.805,6.029,13.3008,4.60064,2470.553,2023-1-10T07:15:43Z
2023-01-10T05:12:33Z,42.805,6.029,13.3010,4.60064,2470.544,2023-1-10T07:18:46Z
2023-01-10T05:15:36Z,42.805,6.029,13.3011,4.60067,2470.544,2023-1-10T07:21:49Z
2023-01-10T05:18:39Z,42.805,6.029,13.3011,4.60067,2470.53,2023-1-10T07:24:52Z
2023-01-10T05:21:42Z,42.805,6.029,13.3015,4.60068,2470.567,2023-1-10T07:27:55Z
2023-01-10T05:24:45Z,42.805,6.029,13.3011,4.60066,2470.553,2023-1-10T07:30:58Z
2023-01-10T05:27:48Z,42.805,6.029,13.3014,4.60078,2470.553,2023-1-10T07:34:01Z
2023-01-10T05:30:51Z,42.805,6.029,13.3011,4.60064,2470.553,2023-1-10T07:37:04Z
2023-01-10T05:33:54Z,42.805,6.029,13.3010,4.60067,2470.553,2023-1-10T07:40:07Z
2023-01-10T05:36:57Z,42.805,6.029,13.3015,4.60066,2470.52,2023-1-10T07:43:10Z
2023-01-10T05:40:00Z,42.805,6.029,13.3015,4.60066,2470.553,2023-1-10T07:46:13Z
2023-01-10T05:43:04Z,42.805,6.029,13.3011,4.60064,2470.577,2023-1-10T07:49:17Z
2023-01-10T05:46:07Z,42.805,6.029,13.3013,4.60066,2470.567,2023-1-10T07:52:20Z
2023-01-10T05:49:10Z,42.805,6.029,13.3011,4.60064,2470.553,2023-1-10T07:55:23Z
2023-01-10T05:52:13Z,42.805,6.029,13.3010,4.60064,2470.577,2023-1-10T07:58:26Z
2023-01-10T05:55:16Z,42.805,6.029,13.3011,4.60063,2470.553,2023-1-10T08:01:29Z
2023-01-10T05:58:19Z,42.805,6.029,13.3010,4.60064,2470.577,2023-1-10T08:04:32Z
2023-01-10T06:01:22Z,42.805,6.029,13.3010,4.60067,2470.577,2023-1-10T08:07:35Z
2023-01-10T06:04:25Z,42.805,6.029,13.3010,4.60067,2470.577,2023-1-10T08:10:38Z
2023-01-10T06:07:28Z,42.805,6.029,13.3009,4.60063,2470.614,2023-1-10T08:13:41Z
2023-01-10T06:10:31Z,42.805,6.029,13.3013,4.60063,2470.614,2023-1-10T08:16:44Z
2023-01-10T06:13:34Z,42.805,6.029,13.3009,4.60064,2470.6,2023-1-10T08:19:47Z
2023-01-10T06:16:38Z,42.805,6.029,13.3011,4.60062,2470.577,2023-1-10T08:22:51Z
2023-01-10T06:19:41Z,42.805,6.029,13.3007,4.60064,2470.553,2023-1-10T08:25:54Z
2023-01-10T06:22:44Z,42.805,6.029,13.3011,4.60062,2470.614,2023-1-10T08:28:57Z
2023-01-10T06:25:47Z,42.805,6.029,13.3011,4.60064,2470.577,2023-1-10T08:32:00Z
2023-01-10T06:28:50Z,42.805,6.029,13.3012,4.60066,2470.563,2023-1-10T08:35:03Z
2023-01-10T06:31:53Z,42.805,6.029,13.3011,4.60064,2470.6,2023-1-10T08:38:06Z
2023-01-10T06:34:56Z,42.805,6.029,13.3009,4.60064,2470.6,2023-1-10T08:41:09Z
2023-01-10T06:37:59Z,42.805,6.029,13.3009,4.60066,2470.624,2023-1-10T08:44:12Z
2023-01-10T06:41:02Z,42.805,6.029,13.3009,4.60063,2470.614,2023-1-10T08:47:15Z
2023-01-10T06:44:05Z,42.805,6.029,13.3008,4.60069,2470.624,2023-1-10T08:50:18Z
2023-01-10T06:47:08Z,42.805,6.029,13.3014,4.60065,2470.6,2023-1-10T08:53:21Z
2023-01-10T06:50:11Z,42.805,6.029,13.3011,4.60063,2470.624,2023-1-10T08:56:24Z
2023-01-10T06:53:15Z,42.805,6.029,13.3011,4.60067,2470.624,2023-1-10T08:59:28Z
2023-01-10T06:56:18Z,42.805,6.029,13.3011,4.60067,2470.624,2023-1-10T09:02:31Z
2023-01-10T06:59:21Z,42.805,6.029,13.3012,4.60063,2470.624,2023-1-10T09:05:34Z
2023-01-10T07:02:24Z,42.805,6.029,13.3011,4.60067,2470.624,2023-1-10T09:08:37Z
2023-01-10T07:05:27Z,42.805,6.029,13.3009,4.60064,2470.624,2023-1-10T09:11:40Z
2023-01-10T07:08:30Z,42.805,6.029,13.3010,4.60064,2470.661,2023-1-10T09:14:43Z
2023-01-10T07:11:33Z,42.805,6.029,13.3012,4.60062,2470.624,2023-1-10T09:17:46Z
2023-01-10T07:14:36Z,42.805,6.029,13.3014,4.60067,2470.646,2023-1-10T09:20:49Z
2023-01-10T07:17:39Z,42.805,6.029,13.3009,4.60069,2470.637,2023-1-10T09:23:52Z
2023-01-10T07:20:42Z,42.805,6.029,13.3009,4.60071,2470.67,2023-1-10T09:26:55Z
2023-01-10T07:23:45Z,42.805,6.029,13.3008,4.60068,2470.656,2023-1-10T09:29:58Z
2023-01-10T07:26:48Z,42.805,6.029,13.3014,4.60065,2470.693,2023-1-10T09:33:02Z
2023-01-10T07:29:52Z,42.805,6.029,13.3011,4.60068,2470.67,2023-1-10T09:36:05Z
2023-01-10T07:32:55Z,42.805,6.029,13.3009,4.60064,2470.646,2023-1-10T09:39:08Z
2023-01-10T07:35:58Z,42.805,6.029,13.3008,4.60064,2470.684,2023-1-10T09:42:11Z
2023-01-10T07:39:01Z,42.805,6.029,13.3014,4.60065,2470.661,2023-1-10T09:45:14Z
2023-01-10T07:42:04Z,42.805,6.029,13.3009,4.60064,2470.67,2023-1-10T09:48:17Z
2023-01-10T07:45:07Z,42.805,6.029,13.3014,4.60069,2470.684,2023-1-10T09:51:20Z
2023-01-10T07:48:10Z,42.805,6.029,13.3014,4.60070,2470.707,2023-1-10T09:54:23Z
2023-01-10T07:51:13Z,42.805,6.029,13.3012,4.60068,2470.679,2023-1-10T09:57:26Z
2023-01-10T07:54:16Z,42.805,6.029,13.3009,4.60068,2470.717,2023-1-10T10:00:29Z
2023-01-10T07:57:19Z,42.805,6.029,13.3013,4.60069,2470.707,2023-1-10T10:03:32Z
2023-01-10T08:00:22Z,42.805,6.029,13.3011,4.60072,2470.717,2023-1-10T10:06:35Z
2023-01-10T08:03:26Z,42.805,6.029,13.3008,4.60065,2470.73,2023-1-10T10:09:39Z
2023-01-10T08:06:29Z,42.805,6.029,13.3014,4.60064,2470.717,2023-1-10T10:12:42Z
2023-01-10T08:09:32Z,42.805,6.029,13.3014,4.60066,2470.67,2023-1-10T10:15:45Z
2023-01-10T08:12:35Z,42.805,6.029,13.3010,4.60074,2470.73,2023-1-10T10:18:48Z
2023-01-10T08:15:38Z,42.805,6.029,13.3007,4.60068,2470.684,2023-1-10T10:21:51Z
2023-01-10T08:18:41Z,42.805,6.029,13.3015,4.60072,2470.693,2023-1-10T10:24:54Z
2023-01-10T08:21:44Z,42.805,6.029,13.3010,4.60069,2470.707,2023-1-10T10:27:57Z
2023-01-10T08:24:47Z,42.805,6.029,13.3010,4.60067,2470.717,2023-1-10T10:31:00Z
2023-01-10T08:27:50Z,42.805,6.029,13.3007,4.60067,2470.693,2023-1-10T10:34:03Z
2023-01-10T08:30:53Z,42.805,6.029,13.3007,4.60064,2470.693,2023-1-10T10:37:06Z
2023-01-10T08:33:56Z,42.805,6.029,13.3010,4.60074,2470.693,2023-1-10T10:40:09Z
2023-01-10T08:36:59Z,42.805,6.029,13.3014,4.60075,2470.693,2023-1-10T10:43:13Z
2023-01-10T08:40:03Z,42.805,6.029,13.3009,4.60065,2470.73,2023-1-10T10:46:16Z
2023-01-10T08:43:06Z,42.805,6.029,13.3011,4.60068,2470.73,2023-1-10T10:49:19Z
2023-01-10T08:46:09Z,42.805,6.029,13.3011,4.60068,2470.73,2023-1-10T10:52:22Z
2023-01-10T08:49:12Z,42.805,6.029,13.3011,4.60069,2470.73,2023-1-10T10:55:25Z
2023-01-10T08:52:15Z,42.805,6.029,13.3013,4.60068,2470.684,2023-1-10T10:58:28Z
2023-01-10T08:55:18Z,42.805,6.029,13.3011,4.60071,2470.73,2023-1-10T11:01:31Z
2023-01-10T08:58:21Z,42.805,6.029,13.3011,4.60068,2470.717,2023-1-10T11:04:34Z
2023-01-10T09:01:24Z,42.805,6.029,13.3011,4.60064,2470.754,2023-1-10T11:07:37Z
2023-01-10T09:04:27Z,42.805,6.029,13.3013,4.60070,2470.717,2023-1-10T11:10:40Z
2023-01-10T09:07:30Z,42.805,6.029,13.3008,4.60072,2470.74,2023-1-10T11:13:43Z
2023-01-10T09:10:33Z,42.805,6.029,13.3011,4.60072,2470.707,2023-1-10T11:16:47Z
2023-01-10T09:13:37Z,42.805,6.029,13.3014,4.60070,2470.707,2023-1-10T11:19:50Z
2023-01-10T09:16:40Z,42.805,6.029,13.3013,4.60067,2470.74,2023-1-10T11:22:53Z
2023-01-10T09:19:43Z,42.805,6.029,13.3009,4.60070,2470.717,2023-1-10T11:25:56Z
2023-01-10T09:22:46Z,42.805,6.029,13.3010,4.60068,2470.717,2023-1-10T11:28:59Z
2023-01-10T09:25:49Z,42.805,6.029,13.3014,4.60075,2470.754,2023-1-10T11:32:02Z
2023-01-10T09:28:52Z,42.805,6.029,13.3012,4.60075,2470.693,2023-1-10T11:35:05Z
2023-01-10T09:31:55Z,42.805,6.029,13.3009,4.60074,2470.74,2023-1-10T11:38:08Z
2023-01-10T09:34:58Z,42.805,6.029,13.3015,4.60069,2470.73,2023-1-10T11:41:11Z
2023-01-10T09:38:01Z,42.805,6.029,13.3008,4.60069,2470.73,2023-1-10T11:44:14Z
2023-01-10T09:41:04Z,42.805,6.029,13.3015,4.60069,2470.73,2023-1-10T11:47:18Z
2023-01-10T09:44:07Z,42.805,6.029,13.3015,4.60068,2470.707,2023-1-10T11:50:21Z
2023-01-10T09:47:11Z,42.805,6.029,13.3015,4.60074,2470.74,2023-1-10T11:53:24Z
2023-01-10T09:50:14Z,42.805,6.029,13.3013,4.60074,2470.717,2023-1-10T11:56:27Z
2023-01-10T09:53:17Z,42.805,6.029,13.3013,4.60069,2470.703,2023-1-10T11:59:30Z
2023-01-10T09:56:20Z,42.805,6.029,13.3012,4.60070,2470.717,2023-1-10T12:02:33Z
2023-01-10T09:59:23Z,42.805,6.029,13.3011,4.60067,2470.684,2023-1-10T12:05:36Z
2023-01-10T10:02:26Z,42.805,6.029,13.3014,4.60068,2470.717,2023-1-10T12:08:39Z
2023-01-10T10:05:29Z,42.805,6.029,13.3012,4.60072,2470.707,2023-1-10T12:11:42Z
2023-01-10T10:08:32Z,42.805,6.029,13.3011,4.60070,2470.717,2023-1-10T12:14:45Z
2023-01-10T10:11:35Z,42.805,6.029,13.3008,4.60067,2470.717,2023-1-10T12:17:48Z
2023-01-10T10:14:38Z,42.805,6.029,13.3011,4.60074,2470.73,2023-1-10T12:20:52Z
2023-01-10T10:17:41Z,42.805,6.029,13.3015,4.60068,2470.717,2023-1-10T12:23:55Z
2023-01-10T10:20:45Z,42.805,6.029,13.3011,4.60072,2470.754,2023-1-10T12:26:58Z
2023-01-10T10:23:48Z,42.805,6.029,13.3008,4.60079,2470.717,2023-1-10T12:30:01Z
2023-01-10T10:26:51Z,42.805,6.029,13.3014,4.60069,2470.717,2023-1-10T12:33:04Z
2023-01-10T10:29:54Z,42.805,6.029,13.3011,4.60069,2470.693,2023-1-10T12:36:07Z
2023-01-10T10:32:57Z,42.805,6.029,13.3011,4.60070,2470.73,2023-1-10T12:39:10Z
2023-01-10T10:36:00Z,42.805,6.029,13.3013,4.60067,2470.754,2023-1-10T12:42:13Z
2023-01-10T10:39:03Z,42.805,6.029,13.3010,4.60072,2470.693,2023-1-10T12:45:16Z
2023-01-10T10:42:06Z,42.805,6.029,13.3014,4.60071,2470.707,2023-1-10T12:48:19Z
2023-01-10T10:45:09Z,42.805,6.029,13.3010,4.60070,2470.717,2023-1-10T12:51:22Z
2023-01-10T10:48:12Z,42.805,6.029,13.3010,4.60068,2470.693,2023-1-10T12:54:26Z
2023-01-10T10:51:16Z,42.805,6.029,13.3011,4.60069,2470.754,2023-1-10T12:57:29Z
2023-01-10T10:54:19Z,42.805,6.029,13.3010,4.60069,2470.693,2023-1-10T13:00:32Z
2023-01-10T10:57:22Z,42.805,6.029,13.3012,4.60072,2470.707,2023-1-10T13:03:35Z
2023-01-10T11:00:25Z,42.805,6.029,13.3011,4.60068,2470.684,2023-1-10T13:06:38Z
2023-01-10T11:03:28Z,42.805,6.029,13.3012,4.60072,2470.707,2023-1-10T13:09:41Z
2023-01-10T11:06:31Z,42.805,6.029,13.3014,4.60069,2470.703,2023-1-10T13:12:44Z
2023-01-10T11:09:34Z,42.805,6.029,13.3014,4.60072,2470.684,2023-1-10T13:15:47Z
2023-01-10T11:12:37Z,42.805,6.029,13.3016,4.60067,2470.707,2023-1-10T13:18:50Z
2023-01-10T11:15:40Z,42.805,6.029,13.3013,4.60084,2470.707,2023-1-10T13:21:53Z
2023-01-10T11:18:43Z,42.805,6.029,13.3015,4.60074,2470.707,2023-1-10T13:24:56Z
2023-01-10T11:21:46Z,42.805,6.029,13.3014,4.60070,2470.693,2023-1-10T13:28:00Z
2023-01-10T11:24:49Z,42.805,6.029,13.3012,4.60074,2470.684,2023-1-10T13:31:03Z
2023-01-10T11:27:53Z,42.805,6.029,13.3015,4.60072,2470.693,2023-1-10T13:34:06Z
2023-01-10T11:30:56Z,42.805,6.029,13.3014,4.60069,2470.693,2023-1-10T13:37:09Z
2023-01-10T11:33:59Z,42.805,6.029,13.3013,4.60075,2470.646,2023-1-10T13:40:12Z
2023-01-10T11:37:02Z,42.805,6.029,13.3009,4.60068,2470.646,2023-1-10T13:43:15Z
2023-01-10T11:40:05Z,42.805,6.029,13.3011,4.60069,2470.684,2023-1-10T13:46:18Z
2023-01-10T11:43:08Z,42.805,6.029,13.3011,4.60073,2470.624,2023-1-10T13:49:21Z
2023-01-10T11:46:11Z,42.805,6.029,13.3009,4.60069,2470.67,2023-1-10T13:52:24Z
2023-01-10T11:49:14Z,42.805,6.029,13.3010,4.60070,2470.646,2023-1-10T13:55:27Z
2023-01-10T11:52:17Z,42.805,6.029,13.3013,4.60071,2470.661,2023-1-10T13:58:30Z
2023-01-10T11:55:20Z,42.805,6.029,13.3012,4.60067,2470.661,2023-1-10T14:01:34Z
2023-01-10T11:58:23Z,42.805,6.029,13.3011,4.60071,2470.67,2023-1-10T14:04:37Z
2023-01-10T12:01:27Z,42.805,6.029,13.3014,4.60069,2470.624,2023-1-10T14:07:40Z
2023-01-10T12:04:30Z,42.805,6.029,13.3011,4.60072,2470.661,2023-1-10T14:10:43Z
2023-01-10T12:07:33Z,42.805,6.029,13.3010,4.60071,2470.67,2023-1-10T14:13:46Z
2023-01-10T12:10:36Z,42.805,6.029,13.3011,4.60073,2470.624,2023-1-10T14:16:49Z
2023-01-10T12:13:39Z,42.805,6.029,13.3010,4.60070,2470.624,2023-1-10T14:19:52Z
2023-01-10T12:16:42Z,42.805,6.029,13.3013,4.60068,2470.637,2023-1-10T14:22:55Z
2023-01-10T12:19:45Z,42.805,6.029,13.3015,4.60067,2470.646,2023-1-10T14:25:58Z
2023-01-10T12:22:48Z,42.805,6.029,13.3010,4.60068,2470.646,2023-1-10T14:29:01Z
2023-01-10T12:25:51Z,42.805,6.029,13.3012,4.60070,2470.624,2023-1-10T14:32:05Z
2023-01-10T12:28:54Z,42.805,6.029,13.3008,4.60072,2470.624,2023-1-10T14:35:08Z
2023-01-10T12:31:57Z,42.805,6.029,13.3010,4.60075,2470.6,2023-1-10T14:38:11Z
2023-01-10T12:35:01Z,42.805,6.029,13.3017,4.60067,2470.6,2023-1-10T14:41:14Z
2023-01-10T12:38:04Z,42.805,6.029,13.3014,4.60077,2470.6,2023-1-10T14:44:17Z
2023-01-10T12:41:07Z,42.805,6.029,13.3011,4.60071,2470.637,2023-1-10T14:47:20Z
2023-01-10T12:44:10Z,42.805,6.029,13.3010,4.60071,2470.624,2023-1-10T14:50:23Z
2023-01-10T12:47:13Z,42.805,6.029,13.3013,4.60075,2470.624,2023-1-10T14:53:26Z
2023-01-10T12:50:16Z,42.805,6.029,13.3012,4.60074,2470.637,2023-1-10T14:56:29Z
2023-01-10T12:53:19Z,42.805,6.029,13.3012,4.60070,2470.614,2023-1-10T14:59:32Z
2023-01-10T12:56:22Z,42.805,6.029,13.3011,4.60070,2470.6,2023-1-10T15:02:35Z
2023-01-10T12:59:25Z,42.805,6.029,13.3013,4.60074,2470.6,2023-1-10T15:05:39Z
2023-01-10T13:02:28Z,42.805,6.029,13.3010,4.60069,2470.591,2023-1-10T15:08:42Z
2023-01-10T13:05:31Z,42.805,6.029,13.3011,4.60074,2470.577,2023-1-10T15:11:45Z
2023-01-10T13:08:35Z,42.805,6.029,13.3009,4.60069,2470.614,2023-1-10T15:14:48Z
2023-01-10T13:11:38Z,42.805,6.029,13.3015,4.60071,2470.577,2023-1-10T15:17:51Z
2023-01-10T13:14:41Z,42.805,6.029,13.3015,4.60067,2470.6,2023-1-10T15:20:54Z
2023-01-10T13:17:44Z,42.805,6.029,13.3013,4.60067,2470.553,2023-1-10T15:23:57Z
2023-01-10T13:20:47Z,42.805,6.029,13.3011,4.60069,2470.577,2023-1-10T15:27:00Z
2023-01-10T13:23:50Z,42.805,6.029,13.3012,4.60072,2470.6,2023-1-10T15:30:03Z
2023-01-10T13:26:53Z,42.805,6.029,13.3009,4.60067,2470.577,2023-1-10T15:33:06Z
2023-01-10T13:29:56Z,42.805,6.029,13.3010,4.60067,2470.6,2023-1-10T15:36:09Z
2023-01-10T13:32:59Z,42.805,6.029,13.3014,4.60071,2470.577,2023-1-10T15:39:13Z
2023-01-10T13:36:02Z,42.805,6.029,13.3012,4.60069,2470.567,2023-1-10T15:42:16Z
2023-01-10T13:39:05Z,42.805,6.029,13.3014,4.60075,2470.53,2023-1-10T15:45:19Z
2023-01-10T13:42:09Z,42.805,6.029,13.3013,4.60073,2470.567,2023-1-10T15:48:22Z
2023-01-10T13:45:12Z,42.805,6.029,13.3014,4.60073,2470.614,2023-1-10T15:51:25Z
2023-01-10T13:48:15Z,42.805,6.029,13.3007,4.60071,2470.553,2023-1-10T15:54:28Z
2023-01-10T13:51:18Z,42.805,6.029,13.3009,4.60073,2470.553,2023-1-10T15:57:31Z
2023-01-10T13:54:21Z,42.805,6.029,13.3014,4.60073,2470.577,2023-1-10T16:00:34Z
2023-01-10T13:57:24Z,42.805,6.029,13.3012,4.60072,2470.567,2023-1-10T16:03:37Z
2023-01-10T14:00:27Z,42.805,6.029,13.3013,4.60069,2470.553,2023-1-10T16:06:40Z
2023-01-10T14:03:30Z,42.805,6.029,13.3011,4.60072,2470.53,2023-1-10T16:09:43Z
2023-01-10T14:06:33Z,42.805,6.029,13.3010,4.60074,2470.53,2023-1-10T16:12:47Z
2023-01-10T14:09:36Z,42.805,6.029,13.3015,4.60069,2470.53,2023-1-10T16:15:50Z
2023-01-10T14:12:39Z,42.805,6.029,13.3015,4.60073,2470.553,2023-1-10T16:18:53Z
2023-01-10T14:15:43Z,42.805,6.029,13.3011,4.60074,2470.567,2023-1-10T16:21:56Z
2023-01-10T14:18:46Z,42.805,6.029,13.3011,4.60075,2470.53,2023-1-10T16:24:59Z
2023-01-10T14:21:49Z,42.805,6.029,13.3012,4.60070,2470.591,2023-1-10T16:28:02Z
2023-01-10T14:24:52Z,42.805,6.029,13.3011,4.60072,2470.553,2023-1-10T16:31:05Z
2023-01-10T14:27:55Z,42.805,6.029,13.3012,4.60068,2470.544,2023-1-10T16:34:08Z
2023-01-10T14:30:58Z,42.805,6.029,13.3017,4.60069,2470.553,2023-1-10T16:37:11Z
2023-01-10T14:34:01Z,42.805,6.029,13.3014,4.60068,2470.567,2023-1-10T16:40:14Z
2023-01-10T14:37:04Z,42.805,6.029,13.3011,4.60068,2470.591,2023-1-10T16:43:17Z
2023-01-10T14:40:07Z,42.805,6.029,13.3009,4.60069,2470.553,2023-1-10T16:46:21Z
2023-01-10T14:43:10Z,42.805,6.029,13.3011,4.60067,2470.553,2023-1-10T16:49:24Z
2023-01-10T14:46:13Z,42.805,6.029,13.3015,4.60067,2470.577,2023-1-10T16:52:27Z
2023-01-10T14:49:17Z,42.805,6.029,13.3011,4.60072,2470.544,2023-1-10T16:55:30Z
2023-01-10T14:52:20Z,42.805,6.029,13.3015,4.60069,2470.567,2023-1-10T16:58:33Z
2023-01-10T14:55:23Z,42.805,6.029,13.3009,4.60077,2470.53,2023-1-10T17:01:36Z
2023-01-10T14:58:26Z,42.805,6.029,13.3012,4.60070,2470.53,2023-1-10T17:04:39Z
2023-01-10T15:01:29Z,42.805,6.029,13.3010,4.60067,2470.553,2023-1-10T17:07:42Z
2023-01-10T15:04:32Z,42.805,6.029,13.3014,4.60067,2470.53,2023-1-10T17:10:45Z
2023-01-10T15:07:35Z,42.805,6.029,13.3012,4.60067,2470.53,2023-1-10T17:13:48Z
2023-01-10T15:10:38Z,42.805,6.029,13.3011,4.60068,2470.567,2023-1-10T17:16:51Z
2023-01-10T15:13:41Z,42.805,6.029,13.3014,4.60068,2470.544,2023-1-10T17:19:55Z